Location: Waldport
(44.4270°N, 124.0680°W)
Time: 05:56:35
(UTC-07:00)

Daily predictions for brighter satellites

Satellite Brightness Start Highest point End
(mag) Time Altitude Azimuth Time Altitude Azimuth Time Altitude Azimuth
Tiangong 2 3.9 00:01:57 10° W 00:02:08 11° W 00:02:08 11° W
CZ-4C R/B 3.5 00:06:55 53° W 00:06:55 53° W 00:10:11 10° NNW
Cosmos 2082 Rocket 3.4 00:03:12 10° SW 00:08:30 40° WNW 00:13:49 10° NNE
Cosmos 2251 Rocket 4.1 00:09:29 39° ESE 00:09:45 39° ESE 00:14:45 10° NE
Cosmos 2098 Rocket 4.4 00:06:35 10° NNE 00:10:38 34° ENE 00:11:29 32° E
CZ-2C R/B 3.3 00:06:01 10° NNE 00:11:18 41° E 00:12:02 39° ESE
Cosmos-2242 3.6 00:07:51 10° N 00:11:59 44° ENE 00:12:09 44° E
Timation 2 Rocket 4.3 00:10:10 21° SW 00:14:32 63° WNW 00:20:39 10° NNE
Cosmos 1842 4.3 00:19:42 36° W 00:20:12 38° WNW 00:23:54 10° N
SeaSat 1 2.7 00:19:51 48° ESE 00:21:00 62° ENE 00:25:54 10° NNW
USA 267 3.1 00:15:42 10° NE 00:22:15 70° SE 00:25:23 33° SSW
Terra 3.7 00:21:22 18° WSW 00:22:47 20° W 00:26:18 10° NW
Cosmos 1271 Rocket 4.2 00:23:40 10° NNW 00:27:00 27° W 00:27:05 27° W
Cosmos 1697 Rocket 4.1 00:24:24 10° NW 00:28:53 25° WSW 00:30:07 23° WSW
CZ-4B R/B 4.1 00:29:21 11° ENE 00:29:21 11° ENE 00:30:11 10° NE
NOSS 3-1 (C) 4.0 00:23:11 10° NW 00:30:44 81° NE 00:34:45 35° SE
Cosmos 1934 Rocket 3.9 00:27:29 10° N 00:33:54 88° W 00:35:40 51° S
ISS -1.2 00:31:20 10° WNW 00:34:02 23° N 00:36:42 10° NE
SL-16 R/B 2.2 00:28:24 10° NNW 00:34:07 80° ENE 00:35:24 55° SE
Cosmos 1953 3.0 00:30:38 10° NNW 00:34:28 45° W 00:34:28 45° W
Lacrosse 5 2.7 00:40:43 37° E 00:40:43 37° E 00:44:24 10° ENE
USA 32 4.1 00:40:08 58° SE 00:40:48 63° E 00:46:01 10° NNE
Cosmos 1733 3.6 00:38:46 10° NNW 00:42:03 58° NW 00:42:03 58° NW
Orbus 7S? 4.5 00:41:40 10° NW 00:45:47 35° W 00:45:47 35° W
IKONOS-2 4.4 00:46:51 86° WNW 00:46:51 86° WNW 00:51:06 10° NNW
Cosmos 1758 Rocket 4.1 00:47:50 45° W 00:48:13 46° WNW 00:52:25 10° N
Cosmos 1842 Rocket 4.0 00:46:23 10° N 00:50:47 51° ENE 00:50:57 51° E
USA 229 DEB 4.4 00:49:29 10° NW 00:56:00 39° WSW 00:57:24 36° SW
USA 229 4.4 00:49:35 10° NW 00:56:07 39° WSW 00:57:31 36° SW
USA 234 3.5 00:52:05 15° ESE 00:57:30 66° NNE 01:03:59 10° NW
Meteor 2-5 Rocket 3.8 00:56:18 58° S 00:57:34 82° E 01:03:32 10° NNE
Cosmos 494 Rocket 4.0 00:57:23 58° SW 00:58:17 72° WNW 01:03:28 10° NNE
Lacrosse 5 rocket 1.8 00:56:20 10° NW 01:01:00 68° NE 01:01:39 59° E
ATLAS 2AS CENTAUR R/B 4.3 00:55:07 10° NNW 01:02:32 37° NE 01:09:34 10° E
NOSS 3-1 (A) 4.0 00:55:30 10° NW 01:03:06 88° SW 01:06:48 38° SSE
Cosmos 1378 3.7 01:08:39 56° NNW 01:08:39 56° NNW 01:11:43 10° N
Cosmos 1470 4.2 01:07:17 10° NNW 01:10:24 30° WNW 01:10:24 30° WNW
CZ-2C R/B 3.4 01:10:34 49° SW 01:11:20 53° W 01:16:52 10° NNW
COSMOS 2428 4.0 01:07:44 10° N 01:12:58 34° NE 01:16:27 18° ESE
Cosmos 2360 Rocket 2.3 01:10:24 10° NNW 01:16:04 71° ENE 01:17:33 49° SE
Cosmos 1980 Rocket 4.0 01:12:57 10° WNW 01:16:29 17° W 01:16:59 17° WSW
ATLAS CENTAUR R/B 2.6 01:13:31 10° NW 01:15:34 29° WNW 01:15:34 29° WNW
ALOS 2 3.4 01:17:35 40° W 01:17:35 40° W 01:21:30 10° NNW
BREEZE-M DEB (TANK) 3.4 01:20:04 29° WNW 01:21:36 58° N 01:31:03 10° ENE
Cosmos 1727 Rocket 4.0 01:20:50 52° SSW 01:22:25 76° W 01:28:42 10° N
Cosmos 1339 Rocket 4.5 01:22:24 52° SSW 01:24:02 78° W 01:30:25 10° N
Meteor 1-16 Rocket 4.3 01:19:57 10° NNW 01:25:12 56° W 01:25:54 52° SW
Cosmos 1707 4.0 01:25:32 32° WNW 01:25:32 32° WNW 01:28:50 10° N
Cosmos 2322 Rocket 2.8 01:21:44 10° NW 01:27:01 40° WSW 01:27:23 39° WSW
Cosmos 1689 Rocket 3.8 01:29:18 34° NNE 01:29:18 34° NNE 01:31:18 10° N
Cosmos 1605 Rocket 4.4 01:25:12 10° NNW 01:30:59 46° W 01:32:19 40° SW
Okean 3 Rocket 3.8 01:37:24 59° ESE 01:37:31 59° E 01:42:00 10° NNE
Meteor 1-24 Rocket 3.9 01:39:58 52° SW 01:41:25 73° WNW 01:47:28 10° N
H-2A R/B 3.0 01:37:34 10° NNE 01:41:40 50° E 01:41:40 50° E
Cosmos 2333 Rocket 3.8 01:40:36 10° N 01:45:38 31° NE 01:50:38 10° ESE
Cosmos 1992 Rocket 3.9 01:42:20 10° NNW 01:47:35 82° ENE 01:48:34 60° SE
Cosmos 2173 Rocket 3.8 01:42:32 10° N 01:48:41 86° W 01:50:16 53° S
CZ-2C R/B 4.0 01:46:33 10° N 01:51:24 31° WNW 01:53:33 24° WSW
Cosmos 1408 Rocket 4.4 01:52:21 38° ESE 01:52:40 38° E 01:56:43 10° NNE
Cosmos 1184 Rocket 4.0 01:54:44 40° NE 01:54:44 40° NE 01:57:05 10° NNE
Cosmos 1674 3.1 01:58:23 57° ENE 01:58:23 57° ENE 02:01:55 10° NNE
SeaSat 1 4.2 01:59:37 19° W 01:59:37 19° W 02:02:23 10° WNW
Cosmos 2297 Rocket 4.4 01:56:55 11° ESE 01:58:54 13° E 02:01:22 10° ENE
Cosmos 1766 Rocket 4.1 01:58:38 46° ESE 01:58:57 47° E 02:03:09 10° NNE
PSLV R/B 4.2 01:55:01 10° NNE 01:59:03 43° E 01:59:11 42° ESE
Cosmos 2219 Rocket 3.1 01:54:59 10° NNW 02:00:27 45° ENE 02:04:22 18° ESE
CZ-4B R/B 3.2 02:02:56 23° NW 02:02:56 23° NW 02:04:28 10° NNW
USA 267 4.1 01:58:53 10° NE 02:05:04 47° NNW 02:11:14 10° W
Cosmos 1242 Rocket 3.5 02:04:37 10° N 02:08:00 41° ENE 02:08:00 41° ENE
Cosmos 2084 Rocket 3.9 02:09:58 44° WNW 02:10:23 46° NW 02:14:13 10° NNE
Cosmos 2221 2.8 02:06:52 10° NNW 02:10:53 52° W 02:10:53 52° W
ISS -1.9 02:08:10 10° NW 02:11:11 32° NNE 02:14:11 10° E
Cosmos 1459 Rocket 4.2 02:06:10 10° NNW 02:12:22 57° W 02:14:06 44° SW
JB-3 4.2 02:08:28 10° N 02:12:20 80° NW 02:12:20 80° NW
Landsat 5 4.4 02:15:20 39° W 02:15:20 39° W 02:19:26 10° NNW
Cosmos 1726 3.0 02:12:06 10° N 02:15:43 42° ENE 02:16:04 41° E
Cosmos 1300 3.9 02:12:45 10° N 02:16:19 35° ENE 02:17:01 32° E
Cosmos 2237 Rocket 3.5 02:12:04 10° NNW 02:17:17 36° NE 02:22:27 10° ESE
SL-16 R/B 4.0 02:14:16 10° WNW 02:17:15 15° W 02:17:15 15° W
Cosmos 1356 Rocket 3.5 02:19:12 59° ESE 02:19:21 59° E 02:23:22 10° NNE
Cosmos 1864 Rocket 4.5 02:14:07 10° N 02:20:26 85° E 02:22:56 40° SSE
Lacrosse 5 2.8 02:19:52 23° W 02:22:37 44° NNW 02:27:29 10° NE
Cosmos 1340 Rocket 3.2 02:24:41 50° WNW 02:24:41 50° WNW 02:28:28 10° N
PSLV R/B 4.3 02:24:03 46° ESE 02:24:52 57° ENE 02:28:52 10° N
Cosmos 1802 Rocket 4.3 02:18:51 10° NNW 02:24:56 53° W 02:26:39 41° SW
SL-8 R/B 3.7 02:27:36 59° SSE 02:27:46 60° SSE 02:32:29 10° ENE
Cosmos 2016 Rocket 4.2 02:26:37 10° NNW 02:32:50 56° W 02:34:49 40° SW
Cosmos 1328 4.4 02:32:44 44° ESE 02:33:15 47° E 02:37:06 10° NNE
SL-16 R/B 4.0 02:27:54 10° ESE 02:33:16 33° ENE 02:38:40 10° N
Meteor 1-21 Rocket 4.3 02:32:11 45° SSW 02:34:02 71° WNW 02:39:55 10° N
Cosmos 2227 Rocket 3.3 02:33:48 26° SE 02:35:52 34° ESE 02:40:55 10° NE
Cosmos 1076 Rocket 4.0 02:36:45 43° W 02:37:09 45° WNW 02:41:20 10° N
Aureole 2 Rocket 4.3 02:34:03 10° N 02:37:44 34° ENE 02:40:29 16° ESE
Lacrosse 5 rocket 3.8 02:36:23 10° WNW 02:37:18 14° W 02:37:18 14° W
USA 234 3.6 02:39:22 38° SSW 02:40:42 42° SW 02:46:53 10° WNW
Cosmos 1140 Rocket 4.3 02:41:38 31° SSE 02:43:28 42° ESE 02:48:22 10° NNE
Meteor 2-10 4.1 02:40:54 10° N 02:46:01 71° ENE 02:48:27 32° SSE
SL-08 R/B 3.9 02:45:30 25° SE 02:48:19 59° ENE 02:53:12 10° N
Cosmos 2151 3.8 02:47:03 32° SE 02:48:19 42° E 02:52:19 10° NNE
Cosmos 1328 Rocket 3.5 02:45:41 10° N 02:50:09 81° W 02:51:07 54° S
Resurs 1-4 Rocket 3.8 02:46:30 10° NE 02:50:54 26° E 02:54:23 14° SE
NOSS 2-1 (D) 4.3 02:51:13 32° SE 02:51:37 33° ESE 02:55:23 10° NE
NOSS 2-1 (C) 4.3 02:51:22 32° SE 02:51:46 32° ESE 02:55:31 10° NE
ADEOS Rocket 4.4 02:46:51 10° NNE 02:53:53 44° E 02:59:38 17° SSE
ATLAS 2AS CENTAUR R/B 2.9 02:46:14 10° NW 02:54:17 74° WSW 03:01:00 13° SSE
AQUA 4.5 02:50:30 10° NNE 02:55:06 47° E 02:57:04 30° SSE
Cosmos 2228 Rocket 3.0 02:51:07 10° NNW 02:55:37 76° W 02:56:43 50° SSW
Cosmos 2219 3.5 02:54:56 35° WSW 02:57:08 58° WNW 03:02:41 10° NNE
COSMOS 2428 3.2 02:51:58 10° NW 02:57:18 41° WSW 02:58:26 37° SW
Cosmos 1151 Rocket 3.2 02:53:50 10° N 02:58:10 68° E 02:59:54 35° SSE
Meteor 2-2 Rocket 4.2 02:52:41 10° NNW 02:58:17 68° W 03:00:30 37° SSW
Cosmos 1455 4.2 02:55:59 10° NNE 02:59:18 26° ENE 03:02:20 11° SE
Cosmos 2360 Rocket 3.8 02:55:47 10° WNW 02:59:18 18° W 02:59:18 18° W
Cosmos 2123 Rocket 4.3 02:58:14 33° SW 03:00:40 51° WNW 03:06:42 10° N
NOSS 3-3 (A) 4.0 03:00:10 36° SSW 03:02:56 81° SE 03:09:40 10° NE
NOSS 3-3 (C) 4.0 03:00:16 36° SSW 03:03:02 80° SE 03:09:46 10° NE
Cosmos 2082 4.2 03:03:00 29° SSE 03:05:36 50° ESE 03:11:01 10° NE
CZ-2D R/B 3.4 03:01:14 10° NNE 03:05:57 33° E 03:09:26 16° SSE
CBERS-1 4.1 03:02:32 10° NNE 03:07:40 71° ESE 03:10:00 33° S
Cosmos 1447 Rocket 4.5 03:04:55 33° SSW 03:07:53 79° W 03:14:13 10° N
Meteor 1-27 4.4 03:03:40 10° N 03:09:30 79° E 03:13:36 21° SSE
Meteor 1-11 4.3 03:07:22 30° S 03:10:17 73° E 03:16:03 10° NNE
Cosmos 1023 Rocket 4.5 03:10:19 35° S 03:12:32 78° ESE 03:17:46 10° NNE
Cosmos 1954 Rocket 3.9 03:11:25 37° SSW 03:13:36 85° WNW 03:18:52 10° NNE
NOSS 2-1 (E) 3.7 03:13:33 40° SSE 03:14:30 51° ESE 03:18:41 10° NE
Cosmos 2233 Rocket 4.1 03:08:29 10° NNW 03:14:42 60° W 03:17:51 30° SSW
Cosmos 407 Rocket 4.0 03:13:12 31° WSW 03:15:15 47° WNW 03:20:15 10° N
ARIANE 5 R/B 3.6 03:11:00 10° NNE 03:15:44 37° E 03:19:11 17° SSE
H-2A R/B 4.5 03:14:06 10° NNW 03:16:55 18° WNW 03:18:17 15° W
Cosmos 1703 3.5 03:20:33 34° SSE 03:22:05 64° E 03:25:58 10° NNE
IRS-1C 4.2 03:16:51 10° NNE 03:22:13 76° ESE 03:25:12 27° S
Cosmos 1072 Rocket 4.5 03:18:35 10° N 03:24:44 82° E 03:29:52 16° S
Helios 1A Rocket 4.1 03:21:15 10° N 03:24:56 31° WNW 03:26:10 26° W
Cosmos 1626 2.3 03:24:32 36° S 03:25:53 69° E 03:29:37 10° NNE
Cosmos 2333 Rocket 2.5 03:24:39 10° NW 03:30:05 46° WSW 03:32:53 26° SSW
Cosmos 676 Rocket 4.4 03:28:06 28° SW 03:30:36 51° WNW 03:35:46 10° NNE
SL-14 R/B 4.2 03:29:56 31° WSW 03:30:59 37° WNW 03:34:47 10° N
Cosmos 1500 Rocket 4.1 03:35:17 31° SW 03:36:53 45° WNW 03:41:10 10° N
Cosmos 2058 3.0 03:37:40 34° SW 03:39:16 60° W 03:43:22 10° N
UNKNOWN OBJECT B 4.5 03:37:05 10° NNE 03:40:38 29° E 03:44:01 11° SSE
Cosmos 2297 Rocket 2.2 03:38:44 26° SSW 03:42:04 89° ESE 03:47:46 10° NNE
Cosmos 1980 3.9 03:36:49 10° NW 03:42:17 48° WSW 03:46:07 19° S
Cosmos 2219 Rocket 3.1 03:39:21 10° NW 03:44:10 29° WSW 03:46:02 24° SW
Cosmos 1464 Rocket 3.9 03:39:38 10° N 03:45:49 76° W 03:51:06 14° S
NOSS 0 Rocket 4.4 03:41:00 10° NW 03:46:40 38° WSW 03:50:18 20° SSW
NOSS 7 (H) 4.4 03:45:42 35° SSW 03:46:54 69° SE 03:50:17 10° NE
ERBS 3.4 03:45:31 22° W 03:47:12 37° NW 03:50:24 10° NE
ATLAS 3B CENTAUR R/B 4.3 03:34:10 10° WSW 03:47:47 30° SSW 03:53:54 10° SE
ISS -3.9 03:44:36 10° WNW 03:47:49 57° SW 03:51:02 10° SE
COBE Rocket 3.7 03:45:30 10° NNE 03:50:12 90° E 03:53:17 21° SSW
Spot 4 Rocket 4.0 03:45:07 10° NNE 03:50:18 88° W 03:53:51 20° SSW
Cosmos 1726 4.3 03:48:48 10° NW 03:50:37 13° W 03:50:40 13° W
Cosmos 1805 Rocket 3.6 03:47:45 21° S 03:50:43 79° E 03:55:10 10° N
BREEZE-M DEB 2.9 03:50:24 25° SW 03:52:30 50° SSE 03:54:51 10° ENE
Cosmos 1241 Rocket 4.4 03:47:31 10° NW 03:53:59 74° WSW 04:00:16 10° SSE
Cosmos 2208 Rocket 3.9 03:50:47 10° NNW 03:55:58 71° WSW 04:01:10 10° S
DELTA 2 R/B (1) 4.2 03:55:02 22° SW 03:57:56 38° SSE 04:03:03 10° E
Cosmos 2237 Rocket 2.8 03:56:12 10° NW 04:01:19 36° WSW 04:05:10 16° SSW
SL-16 R/B 2.2 03:56:01 10° NNW 04:01:45 84° WSW 04:07:25 10° SSE
Okean O Rocket 4.3 04:00:11 10° ENE 04:02:25 14° E 04:04:38 10° ESE
NPP 4.5 03:58:02 10° N 04:02:56 37° WNW 04:06:21 18° WSW
Cosmos 468 Rocket 4.4 03:58:49 10° NNW 04:04:02 66° ENE 04:09:08 10° SSE
IRS-1D 3.6 04:00:48 10° N 04:06:09 72° WNW 04:10:16 17° SSW
Lacrosse 5 4.1 04:02:53 10° WNW 04:06:43 21° N 04:10:33 10° NE
Lacrosse 4 Rocket 2.3 04:05:12 14° S 04:08:21 42° ESE 04:12:21 10° NE
SL-8 R/B 4.2 04:05:40 10° W 04:10:24 59° N 04:15:09 10° ENE
Aureole 2 Rocket 4.2 04:09:44 10° NW 04:12:51 22° W 04:14:04 19° SW
ATLAS 5 CENTAUR R/B 4.4 04:12:06 10° ESE 04:13:08 11° ESE 04:14:11 10° E
SL-16 R/B 2.9 04:11:08 11° S 04:16:42 45° W 04:22:38 10° NNW
Cosmos 1633 Rocket 3.0 04:15:40 12° S 04:19:42 88° E 04:24:06 10° N
Cosmos 2227 Rocket 3.0 04:15:37 15° WSW 04:19:50 39° NW 04:25:08 10° NNE
Cosmos 1356 4.4 04:19:47 19° SW 04:21:44 33° WNW 04:24:58 10° N
UNK 4.5 04:19:04 15° SSW 04:22:15 34° W 04:26:27 10° NNW
MOZ.5/SAFIR/RUBIN 5/SL-8 3.8 04:17:36 10° S 04:22:21 80° WSW 04:27:10 10° NNW
Sich 1 3.0 04:18:35 14° SSW 04:22:23 73° W 04:26:46 10° N
CZ-2D R/B 3.5 04:18:54 10° NNE 04:22:57 77° ESE 04:27:04 10° S
Cosmos 1814 Rocket 4.3 04:21:00 10° NNW 04:26:22 75° ENE 04:31:43 10° SSE
Cosmos 1763 Rocket 4.2 04:22:42 10° NNW 04:27:55 59° ENE 04:33:01 10° SE
Resurs 1-4 Rocket 2.7 04:25:53 10° N 04:30:54 44° WNW 04:35:28 12° SW
ADEOS 4.1 04:28:37 10° N 04:33:35 46° WNW 04:38:13 12° SW
Cosmos 1455 3.6 04:31:47 10° NW 04:34:52 23° W 04:37:18 13° SW
CZ-3 R/B 4.3 03:51:46 10° WSW 04:36:50 47° SSW 04:47:52 10° SE
ADEOS Rocket 4.1 04:32:25 10° N 04:39:17 44° WNW 04:46:30 10° SW
ADEOS II 3.3 04:35:51 10° NNE 04:40:49 41° E 04:45:46 10° SSE
Cosmos 2263 Rocket 4.3 04:38:39 10° SSE 04:42:53 23° E 04:47:06 10° NE
ATLAS 2AS CENTAUR R/B 4.3 04:39:39 10° WNW 04:43:52 16° WSW 04:47:56 10° SW
Cosmos 1869 4.1 04:41:56 10° NNW 04:45:35 33° W 04:49:12 10° SSW
NOSS 3-4 (A) 3.9 04:38:52 10° NW 04:45:49 64° WSW 04:53:13 10° SSE
NOSS 3-4 (C) 3.8 04:38:58 10° NW 04:45:55 65° WSW 04:53:20 10° SSE
CZ-2D R/B 3.0 04:41:21 10° N 04:46:00 34° WNW 04:50:39 10° SW
CZ-4B R/B 4.4 04:42:09 10° NNE 04:46:22 40° E 04:50:22 10° SSE
Cosmos 371 Rocket 3.3 04:43:10 10° NNW 04:48:01 89° WSW 04:52:49 10° SSE
In-Cosmos 22 Rocket 4.4 04:47:38 10° S 04:52:55 69° E 04:58:13 10° NNE
Cosmos 2242 Rocket 3.8 04:49:11 10° NNW 04:53:33 52° W 04:57:55 10° S
ARIANE 5 R/B 3.6 04:50:22 10° N 04:54:44 29° WNW 04:59:02 10° WSW
Landsat 4 3.8 04:52:00 10° SSE 04:55:47 88° E 04:59:38 10° NNW
USA 102 3.9 04:53:42 10° NNE 04:56:47 50° WNW 04:59:52 10° SW
SL-24 R/B 3.8 04:52:56 10° N 04:56:55 72° WNW 05:00:34 10° SSW
Meteor 2-10 Rocket 3.4 04:57:34 10° NNW 05:02:36 80° W 05:07:37 10° S
MOS 1 Rocket 4.0 05:02:06 10° N 05:06:57 45° WNW 05:12:00 10° SW
